Location: *
(51.1248°S, 108.4023°W)
Time: 12:29:59
(UTC+00:00)

USA 281 - Pass Details

Date: 28 October 2021
Orbit: 1078 x 1081 km, 106.0° (Epoch: 25 November)

Event Time Altitude Azimuth Distance (km) Brightness Sun altitude
Exits shadow 05:16:24 - 321° (NW) 3,699 5.8 -22.0°
Reaches altitude 10° 05:20:06 10° 297° (WNW) 2,936 5.5 -22.3°
Maximum altitude 05:22:48 13° 272° (W) 2,746 5.6 -22.5°
Drops below altitude 10° 05:25:31 10° 248° (WSW) 2,950 6.1 -22.6°
Sets 05:29:58 0° 220° (SW) 3,917 7.4 -22.9°
